"Time","Value","Approval","myLocation"
"2023-05-07 00:00",23.083,"Working","OW320"
"2023-05-07 01:00",23.074,"Working","OW320"
"2023-05-07 02:00",23.091,"Working","OW320"
"2023-05-07 03:00",23.077,"Working","OW320"
"2023-05-07 04:00",23.094,"Working","OW320"
"2023-05-07 05:00",23.082,"Working","OW320"
"2023-05-07 06:00",23.089,"Working","OW320"
"2023-05-07 07:00",23.08,"Working","OW320"
"2023-05-07 08:00",23.078,"Working","OW320"
"2023-05-07 09:00",23.08,"Working","OW320"
"2023-05-07 10:00",23.08,"Working","OW320"
"2023-05-07 11:00",23.086,"Working","OW320"
"2023-05-07 12:00",23.08,"Working","OW320"
"2023-05-07 13:00",23.076,"Working","OW320"
"2023-05-07 14:00",23.08,"Working","OW320"
"2023-05-07 15:00",23.084,"Working","OW320"
"2023-05-07 16:00",23.09,"Working","OW320"
"2023-05-07 17:00",23.085,"Working","OW320"
"2023-05-07 18:00",23.094,"Working","OW320"
"2023-05-07 19:00",23.084,"Working","OW320"
"2023-05-07 20:00",23.093,"Working","OW320"
"2023-05-07 21:00",23.085,"Working","OW320"
"2023-05-07 22:00",23.093,"Working","OW320"
"2023-05-07 23:00",23.079,"Working","OW320"
"2023-05-08 00:00",23.09,"Working","OW320"
"2023-05-08 01:00",23.082,"Working","OW320"
"2023-05-08 02:00",23.093,"Working","OW320"
"2023-05-08 03:00",23.079,"Working","OW320"
"2023-05-08 04:00",23.083,"Working","OW320"
"2023-05-08 05:00",23.079,"Working","OW320"
"2023-05-08 06:00",23.083,"Working","OW320"
"2023-05-08 07:00",23.08,"Working","OW320"
"2023-05-08 08:00",23.074,"Working","OW320"
"2023-05-08 09:00",23.072,"Working","OW320"
"2023-05-08 10:00",23.078,"Working","OW320"
"2023-05-08 11:00",23.072,"Working","OW320"
"2023-05-08 12:00",23.071,"Working","OW320"
"2023-05-08 13:00",23.069,"Working","OW320"
"2023-05-08 14:00",23.084,"Working","OW320"
"2023-05-08 15:00",23.075,"Working","OW320"
"2023-05-08 16:00",23.078,"Working","OW320"
"2023-05-08 17:00",23.081,"Working","OW320"
"2023-05-08 18:00",23.073,"Working","OW320"
"2023-05-08 19:00",23.069,"Working","OW320"
"2023-05-08 20:00",23.072,"Working","OW320"
"2023-05-08 21:00",23.066,"Working","OW320"
"2023-05-08 22:00",23.078,"Working","OW320"
"2023-05-08 23:00",23.068,"Working","OW320"
"2023-05-09 00:00",23.077,"Working","OW320"
"2023-05-09 01:00",23.068,"Working","OW320"
"2023-05-09 02:00",23.076,"Working","OW320"
"2023-05-09 03:00",23.08,"Working","OW320"
"2023-05-09 04:00",23.077,"Working","OW320"
"2023-05-09 05:00",23.088,"Working","OW320"
"2023-05-09 06:00",23.083,"Working","OW320"
"2023-05-09 07:00",23.082,"Working","OW320"
"2023-05-09 08:00",23.086,"Working","OW320"
"2023-05-09 09:00",23.083,"Working","OW320"
"2023-05-09 10:00",23.086,"Working","OW320"
"2023-05-09 11:00",23.094,"Working","OW320"
"2023-05-09 12:00",23.089,"Working","OW320"
"2023-05-09 13:00",23.09,"Working","OW320"
"2023-05-09 14:00",23.096,"Working","OW320"
"2023-05-09 15:00",23.104,"Working","OW320"
"2023-05-09 16:00",23.095,"Working","OW320"
"2023-05-09 17:00",23.102,"Working","OW320"
"2023-05-09 18:00",23.095,"Working","OW320"
"2023-05-09 19:00",23.102,"Working","OW320"
"2023-05-09 20:00",23.091,"Working","OW320"
"2023-05-09 21:00",23.1,"Working","OW320"
"2023-05-09 22:00",23.09,"Working","OW320"
"2023-05-09 23:00",23.098,"Working","OW320"
"2023-05-10 00:00",23.09,"Working","OW320"
"2023-05-10 01:00",23.094,"Working","OW320"
"2023-05-10 02:00",23.088,"Working","OW320"
"2023-05-10 03:00",23.099,"Working","OW320"
"2023-05-10 04:00",23.094,"Working","OW320"
"2023-05-10 05:00",23.103,"Working","OW320"
"2023-05-10 06:00",23.094,"Working","OW320"
"2023-05-10 07:00",23.091,"Working","OW320"
"2023-05-10 08:00",23.094,"Working","OW320"
"2023-05-10 09:00",23.086,"Working","OW320"
"2023-05-10 10:00",23.084,"Working","OW320"
"2023-05-10 11:00",23.098,"Working","OW320"
"2023-05-10 12:00",23.085,"Working","OW320"
"2023-05-10 13:00",23.083,"Working","OW320"
"2023-05-10 14:00",23.097,"Working","OW320"
"2023-05-10 15:00",23.086,"Working","OW320"
"2023-05-10 16:00",23.096,"Working","OW320"
"2023-05-10 17:00",23.087,"Working","OW320"
"2023-05-10 18:00",23.098,"Working","OW320"
"2023-05-10 19:00",23.084,"Working","OW320"
"2023-05-10 20:00",23.093,"Working","OW320"
"2023-05-10 21:00",23.082,"Working","OW320"
"2023-05-10 22:00",23.082,"Working","OW320"
"2023-05-10 23:00",23.086,"Working","OW320"
"2023-05-11 00:00",23.089,"Working","OW320"
"2023-05-11 01:00",23.086,"Working","OW320"
"2023-05-11 02:00",23.082,"Working","OW320"
"2023-05-11 03:00",23.092,"Working","OW320"
"2023-05-11 04:00",23.089,"Working","OW320"
"2023-05-11 05:00",23.103,"Working","OW320"
"2023-05-11 06:00",23.097,"Working","OW320"
"2023-05-11 07:00",23.108,"Working","OW320"
"2023-05-11 08:00",23.098,"Working","OW320"
"2023-05-11 09:00",23.098,"Working","OW320"
"2023-05-11 10:00",23.096,"Working","OW320"
"2023-05-11 11:00",23.098,"Working","OW320"
"2023-05-11 12:00",23.11,"Working","OW320"
"2023-05-11 13:00",23.1,"Working","OW320"
"2023-05-11 14:00",23.114,"Working","OW320"
"2023-05-11 15:00",23.108,"Working","OW320"
"2023-05-11 16:00",23.119,"Working","OW320"
"2023-05-11 17:00",23.11,"Working","OW320"
"2023-05-11 18:00",23.122,"Working","OW320"
"2023-05-11 19:00",23.108,"Working","OW320"
"2023-05-11 20:00",23.118,"Working","OW320"
"2023-05-11 21:00",23.11,"Working","OW320"
"2023-05-11 22:00",23.104,"Working","OW320"
"2023-05-11 23:00",23.107,"Working","OW320"
"2023-05-12 00:00",23.098,"Working","OW320"
"2023-05-12 01:00",23.108,"Working","OW320"
"2023-05-12 02:00",23.098,"Working","OW320"
"2023-05-12 03:00",23.11,"Working","OW320"
"2023-05-12 04:00",23.105,"Working","OW320"
"2023-05-12 05:00",23.118,"Working","OW320"
"2023-05-12 06:00",23.11,"Working","OW320"
"2023-05-12 07:00",23.109,"Working","OW320"
"2023-05-12 08:00",23.113,"Working","OW320"
"2023-05-12 09:00",23.113,"Working","OW320"
"2023-05-12 10:00",23.113,"Working","OW320"
"2023-05-12 11:00",23.121,"Working","OW320"
"2023-05-12 12:00",23.113,"Working","OW320"
"2023-05-12 13:00",23.124,"Working","OW320"
"2023-05-12 14:00",23.118,"Working","OW320"
"2023-05-12 15:00",23.129,"Working","OW320"
"2023-05-12 16:00",23.122,"Working","OW320"
"2023-05-12 17:00",23.133,"Working","OW320"
"2023-05-12 18:00",23.121,"Working","OW320"
"2023-05-12 19:00",23.133,"Working","OW320"
"2023-05-12 20:00",23.12,"Working","OW320"
"2023-05-12 21:00",23.137,"Working","OW320"
"2023-05-12 22:00",23.128,"Working","OW320"
"2023-05-12 23:00",23.135,"Working","OW320"
"2023-05-13 00:00",23.122,"Working","OW320"
"2023-05-13 01:00",23.138,"Working","OW320"
"2023-05-13 02:00",23.125,"Working","OW320"
"2023-05-13 03:00",23.136,"Working","OW320"
"2023-05-13 04:00",23.128,"Working","OW320"
"2023-05-13 05:00",23.14,"Working","OW320"
"2023-05-13 06:00",23.131,"Working","OW320"
"2023-05-13 07:00",23.141,"Working","OW320"
"2023-05-13 08:00",23.13,"Working","OW320"
"2023-05-13 09:00",23.141,"Working","OW320"
"2023-05-13 10:00",23.131,"Working","OW320"
"2023-05-13 11:00",23.137,"Working","OW320"
"2023-05-13 12:00",23.131,"Working","OW320"
"2023-05-13 13:00",23.14,"Working","OW320"
"2023-05-13 14:00",23.138,"Working","OW320"
"2023-05-13 15:00",23.146,"Working","OW320"
"2023-05-13 16:00",23.149,"Working","OW320"
"2023-05-13 17:00",23.135,"Working","OW320"
"2023-05-13 18:00",23.145,"Working","OW320"
"2023-05-13 19:00",23.136,"Working","OW320"
"2023-05-13 20:00",23.138,"Working","OW320"
"2023-05-13 21:00",23.135,"Working","OW320"
"2023-05-13 22:00",23.128,"Working","OW320"
"2023-05-13 23:00",23.128,"Working","OW320"
"2023-05-14 00:00",23.118,"Working","OW320"
"2023-05-14 01:00",23.121,"Working","OW320"
"2023-05-14 02:00",23.123,"Working","OW320"
"2023-05-14 03:00",23.121,"Working","OW320"
"2023-05-14 04:00",23.128,"Working","OW320"
"2023-05-14 05:00",23.118,"Working","OW320"
"2023-05-14 06:00",23.13,"Working","OW320"
"2023-05-14 07:00",23.119,"Working","OW320"
"2023-05-14 08:00",23.131,"Working","OW320"
"2023-05-14 09:00",23.118,"Working","OW320"
"2023-05-14 10:00",23.116,"Working","OW320"
"2023-05-14 11:00",23.117,"Working","OW320"
"2023-05-14 12:00",23.113,"Working","OW320"
"2023-05-14 13:00",23.126,"Working","OW320"
"2023-05-14 14:00",23.113,"Working","OW320"
"2023-05-14 15:00",23.128,"Working","OW320"
"2023-05-14 16:00",23.13,"Working","OW320"
"2023-05-14 17:00",23.129,"Working","OW320"
"2023-05-14 18:00",23.118,"Working","OW320"
"2023-05-14 19:00",23.121,"Working","OW320"
"2023-05-14 20:00",23.128,"Working","OW320"
"2023-05-14 21:00",23.122,"Working","OW320"
"2023-05-14 22:00",23.125,"Working","OW320"
"2023-05-14 23:00",23.119,"Working","OW320"
"2023-05-15 00:00",23.121,"Working","OW320"
"2023-05-15 01:00",23.117,"Working","OW320"
"2023-05-15 02:00",23.124,"Working","OW320"
"2023-05-15 03:00",23.131,"Working","OW320"
"2023-05-15 04:00",23.133,"Working","OW320"
"2023-05-15 05:00",23.137,"Working","OW320"
"2023-05-15 06:00",23.126,"Working","OW320"
"2023-05-15 07:00",23.123,"Working","OW320"
"2023-05-15 08:00",23.119,"Working","OW320"
"2023-05-15 09:00",23.119,"Working","OW320"
"2023-05-15 10:00",23.128,"Working","OW320"
"2023-05-15 11:00",23.131,"Working","OW320"
"2023-05-15 12:00",23.135,"Working","OW320"
"2023-05-15 13:00",23.137,"Working","OW320"
"2023-05-15 14:00",23.145,"Working","OW320"
"2023-05-15 15:00",23.142,"Working","OW320"
"2023-05-15 16:00",23.141,"Working","OW320"
"2023-05-15 17:00",23.144,"Working","OW320"
"2023-05-15 18:00",23.134,"Working","OW320"
"2023-05-15 19:00",23.128,"Working","OW320"
"2023-05-15 20:00",23.133,"Working","OW320"
"2023-05-15 21:00",23.137,"Working","OW320"
"2023-05-15 22:00",23.138,"Working","OW320"
"2023-05-15 23:00",23.137,"Working","OW320"
"2023-05-16 00:00",23.135,"Working","OW320"
"2023-05-16 01:00",23.139,"Working","OW320"
"2023-05-16 02:00",23.139,"Working","OW320"
"2023-05-16 03:00",23.141,"Working","OW320"
"2023-05-16 04:00",23.148,"Working","OW320"
"2023-05-16 05:00",23.157,"Working","OW320"
"2023-05-16 06:00",23.144,"Working","OW320"
"2023-05-16 07:00",23.144,"Working","OW320"
"2023-05-16 08:00",23.151,"Working","OW320"
"2023-05-16 09:00",23.158,"Working","OW320"
"2023-05-16 10:00",23.168,"Working","OW320"
"2023-05-16 11:00",23.162,"Working","OW320"
"2023-05-16 12:00",23.158,"Working","OW320"
"2023-05-16 13:00",23.155,"Working","OW320"
"2023-05-16 14:00",23.171,"Working","OW320"
"2023-05-16 15:00",23.172,"Working","OW320"
"2023-05-16 16:00",23.173,"Working","OW320"
"2023-05-16 17:00",23.175,"Working","OW320"
"2023-05-16 18:00",23.177,"Working","OW320"
"2023-05-16 19:00",23.177,"Working","OW320"
"2023-05-16 20:00",23.174,"Working","OW320"
"2023-05-16 21:00",23.159,"Working","OW320"
"2023-05-16 22:00",23.151,"Working","OW320"
"2023-05-16 23:00",23.152,"Working","OW320"
"2023-05-17 00:00",23.152,"Working","OW320"
"2023-05-17 01:00",23.151,"Working","OW320"
"2023-05-17 02:00",23.152,"Working","OW320"
"2023-05-17 03:00",23.158,"Working","OW320"
"2023-05-17 04:00",23.162,"Working","OW320"
"2023-05-17 05:00",23.166,"Working","OW320"
"2023-05-17 06:00",23.153,"Working","OW320"
"2023-05-17 07:00",23.151,"Working","OW320"
"2023-05-17 08:00",23.144,"Working","OW320"
"2023-05-17 09:00",23.142,"Working","OW320"
"2023-05-17 10:00",23.158,"Working","OW320"
"2023-05-17 11:00",23.16,"Working","OW320"
"2023-05-17 12:00",23.163,"Working","OW320"
"2023-05-17 13:00",23.148,"Working","OW320"
"2023-05-17 14:00",23.149,"Working","OW320"
"2023-05-17 15:00",23.16,"Working","OW320"
"2023-05-17 16:00",23.161,"Working","OW320"
"2023-05-17 17:00",23.162,"Working","OW320"
"2023-05-17 18:00",23.167,"Working","OW320"
"2023-05-17 19:00",23.151,"Working","OW320"
"2023-05-17 20:00",23.14,"Working","OW320"
"2023-05-17 21:00",23.133,"Working","OW320"
"2023-05-17 22:00",23.128,"Working","OW320"
"2023-05-17 23:00",23.137,"Working","OW320"
"2023-05-18 00:00",23.136,"Working","OW320"
"2023-05-18 01:00",23.135,"Working","OW320"
"2023-05-18 02:00",23.136,"Working","OW320"
"2023-05-18 03:00",23.139,"Working","OW320"
"2023-05-18 04:00",23.147,"Working","OW320"
"2023-05-18 05:00",23.15,"Working","OW320"
"2023-05-18 06:00",23.139,"Working","OW320"
"2023-05-18 07:00",23.139,"Working","OW320"
"2023-05-18 08:00",23.136,"Working","OW320"
"2023-05-18 09:00",23.151,"Working","OW320"
"2023-05-18 10:00",23.155,"Working","OW320"
"2023-05-18 11:00",23.142,"Working","OW320"
"2023-05-18 12:00",23.14,"Working","OW320"
"2023-05-18 13:00",23.138,"Working","OW320"
"2023-05-18 14:00",23.156,"Working","OW320"
"2023-05-18 15:00",23.162,"Working","OW320"
"2023-05-18 16:00",23.165,"Working","OW320"
"2023-05-18 17:00",23.169,"Working","OW320"
"2023-05-18 18:00",23.171,"Working","OW320"
"2023-05-18 19:00",23.161,"Working","OW320"
"2023-05-18 20:00",23.158,"Working","OW320"
"2023-05-18 21:00",23.167,"Working","OW320"
"2023-05-18 22:00",23.171,"Working","OW320"
"2023-05-18 23:00",23.172,"Working","OW320"
"2023-05-19 00:00",23.171,"Working","OW320"
"2023-05-19 01:00",23.166,"Working","OW320"
"2023-05-19 02:00",23.16,"Working","OW320"
"2023-05-19 03:00",23.18,"Working","OW320"
"2023-05-19 04:00",23.184,"Working","OW320"
"2023-05-19 05:00",23.188,"Working","OW320"
"2023-05-19 06:00",23.19,"Working","OW320"
"2023-05-19 07:00",23.18,"Working","OW320"
"2023-05-19 08:00",23.177,"Working","OW320"
"2023-05-19 09:00",23.175,"Working","OW320"
"2023-05-19 10:00",23.174,"Working","OW320"
"2023-05-19 11:00",23.189,"Working","OW320"
"2023-05-19 12:00",23.193,"Working","OW320"
"2023-05-19 13:00",23.197,"Working","OW320"
"2023-05-19 14:00",23.2,"Working","OW320"
"2023-05-19 15:00",23.203,"Working","OW320"
"2023-05-19 16:00",23.188,"Working","OW320"
"2023-05-19 17:00",23.195,"Working","OW320"
"2023-05-19 18:00",23.197,"Working","OW320"
"2023-05-19 19:00",23.197,"Working","OW320"
"2023-05-19 20:00",23.189,"Working","OW320"
"2023-05-19 21:00",23.178,"Working","OW320"
"2023-05-19 22:00",23.174,"Working","OW320"
"2023-05-19 23:00",23.174,"Working","OW320"
"2023-05-20 00:00",23.175,"Working","OW320"
"2023-05-20 01:00",23.175,"Working","OW320"
"2023-05-20 02:00",23.176,"Working","OW320"
"2023-05-20 03:00",23.181,"Working","OW320"
"2023-05-20 04:00",23.182,"Working","OW320"
"2023-05-20 05:00",23.189,"Working","OW320"
"2023-05-20 06:00",23.173,"Working","OW320"
"2023-05-20 07:00",23.172,"Working","OW320"
"2023-05-20 08:00",23.172,"Working","OW320"
"2023-05-20 09:00",23.183,"Working","OW320"
"2023-05-20 10:00",23.189,"Working","OW320"
"2023-05-20 11:00",23.179,"Working","OW320"
"2023-05-20 12:00",23.178,"Working","OW320"
"2023-05-20 13:00",23.177,"Working","OW320"
"2023-05-20 14:00",23.185,"Working","OW320"
"2023-05-20 15:00",23.196,"Working","OW320"
"2023-05-20 16:00",23.194,"Working","OW320"
"2023-05-20 17:00",23.193,"Working","OW320"
"2023-05-20 18:00",23.194,"Working","OW320"
"2023-05-20 19:00",23.194,"Working","OW320"
"2023-05-20 20:00",23.182,"Working","OW320"
"2023-05-20 21:00",23.175,"Working","OW320"
"2023-05-20 22:00",23.176,"Working","OW320"
"2023-05-20 23:00",23.182,"Working","OW320"
"2023-05-21 00:00",23.177,"Working","OW320"
"2023-05-21 01:00",23.177,"Working","OW320"
"2023-05-21 02:00",23.178,"Working","OW320"
"2023-05-21 03:00",23.186,"Working","OW320"
"2023-05-21 04:00",23.189,"Working","OW320"
"2023-05-21 05:00",23.179,"Working","OW320"
"2023-05-21 06:00",23.18,"Working","OW320"
"2023-05-21 07:00",23.179,"Working","OW320"
"2023-05-21 08:00",23.194,"Working","OW320"
"2023-05-21 09:00",23.197,"Working","OW320"
"2023-05-21 10:00",23.184,"Working","OW320"
"2023-05-21 11:00",23.182,"Working","OW320"
"2023-05-21 12:00",23.182,"Working","OW320"
"2023-05-21 13:00",23.195,"Working","OW320"
"2023-05-21 14:00",23.201,"Working","OW320"
"2023-05-21 15:00",23.201,"Working","OW320"
"2023-05-21 16:00",23.203,"Working","OW320"
"2023-05-21 17:00",23.206,"Working","OW320"
"2023-05-21 18:00",23.191,"Working","OW320"
"2023-05-21 19:00",23.186,"Working","OW320"
"2023-05-21 20:00",23.199,"Working","OW320"
"2023-05-21 21:00",23.198,"Working","OW320"
"2023-05-21 22:00",23.198,"Working","OW320"
"2023-05-21 23:00",23.198,"Working","OW320"
"2023-05-22 00:00",23.195,"Working","OW320"
"2023-05-22 01:00",23.183,"Working","OW320"
"2023-05-22 02:00",23.182,"Working","OW320"
"2023-05-22 03:00",23.198,"Working","OW320"
"2023-05-22 04:00",23.203,"Working","OW320"
"2023-05-22 05:00",23.204,"Working","OW320"
"2023-05-22 06:00",23.205,"Working","OW320"
"2023-05-22 07:00",23.193,"Working","OW320"
"2023-05-22 08:00",23.19,"Working","OW320"
"2023-05-22 09:00",23.186,"Working","OW320"
"2023-05-22 10:00",23.183,"Working","OW320"
"2023-05-22 11:00",23.193,"Working","OW320"
"2023-05-22 12:00",23.2,"Working","OW320"
"2023-05-22 13:00",23.208,"Working","OW320"
"2023-05-22 14:00",23.204,"Working","OW320"
"2023-05-22 15:00",23.201,"Working","OW320"
"2023-05-22 16:00",23.203,"Working","OW320"
"2023-05-22 17:00",23.218,"Working","OW320"
"2023-05-22 18:00",23.21,"Working","OW320"
"2023-05-22 19:00",23.213,"Working","OW320"
"2023-05-22 20:00",23.214,"Working","OW320"
"2023-05-22 21:00",23.197,"Working","OW320"
"2023-05-22 22:00",23.214,"Working","OW320"
"2023-05-22 23:00",23.231,"Working","OW320"
"2023-05-23 00:00",23.252,"Working","OW320"
"2023-05-23 01:00",23.263,"Working","OW320"
"2023-05-23 02:00",23.272,"Working","OW320"
"2023-05-23 03:00",23.281,"Working","OW320"
"2023-05-23 04:00",23.289,"Working","OW320"
"2023-05-23 05:00",23.29,"Working","OW320"
"2023-05-23 06:00",23.289,"Working","OW320"
"2023-05-23 07:00",23.295,"Working","OW320"
"2023-05-23 08:00",23.297,"Working","OW320"
"2023-05-23 09:00",23.303,"Working","OW320"
"2023-05-23 10:00",23.316,"Working","OW320"
"2023-05-23 11:00",23.321,"Working","OW320"
"2023-05-23 12:00",23.316,"Working","OW320"
"2023-05-23 13:00",23.322,"Working","OW320"
"2023-05-23 14:00",23.324,"Working","OW320"
"2023-05-23 15:00",23.338,"Working","OW320"
"2023-05-23 16:00",23.344,"Working","OW320"
"2023-05-23 17:00",23.348,"Working","OW320"
"2023-05-23 18:00",23.35,"Working","OW320"
"2023-05-23 19:00",23.345,"Working","OW320"
"2023-05-23 20:00",23.348,"Working","OW320"
"2023-05-23 21:00",23.35,"Working","OW320"
"2023-05-23 22:00",23.364,"Working","OW320"
"2023-05-23 23:00",23.367,"Working","OW320"
"2023-05-24 00:00",23.371,"Working","OW320"
"2023-05-24 01:00",23.362,"Working","OW320"
"2023-05-24 02:00",23.364,"Working","OW320"
"2023-05-24 03:00",23.379,"Working","OW320"
"2023-05-24 04:00",23.388,"Working","OW320"
"2023-05-24 05:00",23.395,"Working","OW320"
"2023-05-24 06:00",23.392,"Working","OW320"
"2023-05-24 07:00",23.389,"Working","OW320"
"2023-05-24 08:00",23.389,"Working","OW320"
"2023-05-24 09:00",23.391,"Working","OW320"
"2023-05-24 10:00",23.395,"Working","OW320"
"2023-05-24 11:00",23.411,"Working","OW320"
"2023-05-24 12:00",23.416,"Working","OW320"
"2023-05-24 13:00",23.409,"Working","OW320"
"2023-05-24 14:00",23.415,"Working","OW320"
"2023-05-24 15:00",23.428,"Working","OW320"
"2023-05-24 16:00",23.431,"Working","OW320"
"2023-05-24 17:00",23.44,"Working","OW320"
"2023-05-24 18:00",23.442,"Working","OW320"
"2023-05-24 19:00",23.432,"Working","OW320"
"2023-05-24 20:00",23.433,"Working","OW320"
"2023-05-24 21:00",23.443,"Working","OW320"
"2023-05-24 22:00",23.446,"Working","OW320"
"2023-05-24 23:00",23.449,"Working","OW320"
"2023-05-25 00:00",23.453,"Working","OW320"
"2023-05-25 01:00",23.451,"Working","OW320"
"2023-05-25 02:00",23.453,"Working","OW320"
"2023-05-25 03:00",23.446,"Working","OW320"
"2023-05-25 04:00",23.449,"Working","OW320"
"2023-05-25 05:00",23.468,"Working","OW320"
"2023-05-25 06:00",23.472,"Working","OW320"
"2023-05-25 07:00",23.477,"Working","OW320"
"2023-05-25 08:00",23.469,"Working","OW320"
"2023-05-25 09:00",23.471,"Working","OW320"
"2023-05-25 10:00",23.473,"Working","OW320"
"2023-05-25 11:00",23.476,"Working","OW320"
"2023-05-25 12:00",23.487,"Working","OW320"
"2023-05-25 13:00",23.495,"Working","OW320"
"2023-05-25 14:00",23.502,"Working","OW320"
"2023-05-25 15:00",23.51,"Working","OW320"
"2023-05-25 16:00",23.511,"Working","OW320"
"2023-05-25 17:00",23.512,"Working","OW320"
"2023-05-25 18:00",23.504,"Working","OW320"
"2023-05-25 19:00",23.503,"Working","OW320"
"2023-05-25 20:00",23.509,"Working","OW320"
"2023-05-25 21:00",23.514,"Working","OW320"
"2023-05-25 22:00",23.517,"Working","OW320"
"2023-05-25 23:00",23.518,"Working","OW320"
"2023-05-26 00:00",23.519,"Working","OW320"
"2023-05-26 01:00",23.511,"Working","OW320"
"2023-05-26 02:00",23.512,"Working","OW320"
"2023-05-26 03:00",23.531,"Working","OW320"
"2023-05-26 04:00",23.537,"Working","OW320"
"2023-05-26 05:00",23.545,"Working","OW320"
"2023-05-26 06:00",23.549,"Working","OW320"
"2023-05-26 07:00",23.554,"Working","OW320"
"2023-05-26 08:00",23.548,"Working","OW320"
"2023-05-26 09:00",23.548,"Working","OW320"
"2023-05-26 10:00",23.55,"Working","OW320"
"2023-05-26 11:00",23.562,"Working","OW320"
"2023-05-26 12:00",23.574,"Working","OW320"
"2023-05-26 13:00",23.58,"Working","OW320"
"2023-05-26 14:00",23.592,"Working","OW320"
"2023-05-26 15:00",23.602,"Working","OW320"
"2023-05-26 16:00",23.591,"Working","OW320"
"2023-05-26 17:00",23.592,"Working","OW320"
"2023-05-26 18:00",23.592,"Working","OW320"
"2023-05-26 19:00",23.595,"Working","OW320"
"2023-05-26 20:00",23.595,"Working","OW320"
"2023-05-26 21:00",23.596,"Working","OW320"
"2023-05-26 22:00",23.585,"Working","OW320"
"2023-05-26 23:00",23.582,"Working","OW320"
"2023-05-27 00:00",23.599,"Working","OW320"
"2023-05-27 01:00",23.602,"Working","OW320"
"2023-05-27 02:00",23.598,"Working","OW320"
"2023-05-27 03:00",23.608,"Working","OW320"
"2023-05-27 04:00",23.623,"Working","OW320"
"2023-05-27 05:00",23.632,"Working","OW320"
"2023-05-27 06:00",23.639,"Working","OW320"
"2023-05-27 07:00",23.643,"Working","OW320"
"2023-05-27 08:00",23.648,"Working","OW320"
"2023-05-27 09:00",23.652,"Working","OW320"
"2023-05-27 10:00",23.644,"Working","OW320"
"2023-05-27 11:00",23.645,"Working","OW320"
"2023-05-27 12:00",23.662,"Working","OW320"
"2023-05-27 13:00",23.67,"Working","OW320"
"2023-05-27 14:00",23.676,"Working","OW320"
"2023-05-27 15:00",23.68,"Working","OW320"
"2023-05-27 16:00",23.686,"Working","OW320"
"2023-05-27 17:00",23.688,"Working","OW320"
"2023-05-27 18:00",23.69,"Working","OW320"
"2023-05-27 19:00",23.69,"Working","OW320"
"2023-05-27 20:00",23.691,"Working","OW320"
"2023-05-27 21:00",23.693,"Working","OW320"
"2023-05-27 22:00",23.691,"Working","OW320"
"2023-05-27 23:00",23.68,"Working","OW320"
"2023-05-28 00:00",23.679,"Working","OW320"
"2023-05-28 01:00",23.691,"Working","OW320"
"2023-05-28 02:00",23.697,"Working","OW320"
"2023-05-28 03:00",23.704,"Working","OW320"
"2023-05-28 04:00",23.708,"Working","OW320"
"2023-05-28 05:00",23.713,"Working","OW320"
"2023-05-28 06:00",23.716,"Working","OW320"
"2023-05-28 07:00",23.721,"Working","OW320"
"2023-05-28 08:00",23.707,"Working","OW320"
"2023-05-28 09:00",23.708,"Working","OW320"
"2023-05-28 10:00",23.712,"Working","OW320"
"2023-05-28 11:00",23.711,"Working","OW320"
"2023-05-28 12:00",23.726,"Working","OW320"
"2023-05-28 13:00",23.734,"Working","OW320"
"2023-05-28 14:00",23.737,"Working","OW320"
"2023-05-28 15:00",23.74,"Working","OW320"
"2023-05-28 16:00",23.748,"Working","OW320"
"2023-05-28 17:00",23.739,"Working","OW320"
"2023-05-28 18:00",23.745,"Working","OW320"
"2023-05-28 19:00",23.748,"Working","OW320"
"2023-05-28 20:00",23.748,"Working","OW320"
"2023-05-28 21:00",23.748,"Working","OW320"
"2023-05-28 22:00",23.748,"Working","OW320"
"2023-05-28 23:00",23.746,"Working","OW320"
"2023-05-29 00:00",23.737,"Working","OW320"
"2023-05-29 01:00",23.735,"Working","OW320"
"2023-05-29 02:00",23.738,"Working","OW320"
"2023-05-29 03:00",23.74,"Working","OW320"
"2023-05-29 04:00",23.742,"Working","OW320"